Torna al catalogo

STARLINK-30298

AttivoComunicazioniVLEO
NORAD 57665·PAYLOAD·🇺🇸 United States

Lanciato Aug 22, 2023 da Vandenberg Space Force Base

Loading…

Prossimi Passaggi (prossime 24 ore)

TLE

AggiornatoSource: CelesTrak SupGP

Epoca: Sep 14, 2026, 13:27 UTC

1 57665C 23124C   26257.56090278 -.00049963  00000+0 -14760-2 0  2579
2 57665  53.1591  47.1294 0001224  91.7254  90.6525 15.34418585    11

Traccia STARLINK-30298 in tempo reale con AllMySat

Download on the App Store